KB2FWP Weather Reports


time (UTC)temp
C
wind
direction
speed
KPH
gust
KPH
rain 1hr
cm
rain 24hr
cm
rain mn
cm
humidity
%
barometer
mb
20260506161516 13 197 17.7 32.2 0.00 0.00 0.00 90 1011.2
20260506160017 13 208 22.5 35.4 0.00 0.00 0.00 90 1011.3
20260506154516 13 183 16.1 38.6 0.00 0.00 0.00 90 1011.4
20260506153013 13 208 20.9 43.5 0.00 0.00 0.00 90 1011.6
20260506151513 13 189 17.7 40.2 0.00 0.00 0.00 90 1011.6
20260506150012 13 155 19.3 37.0 0.00 0.00 0.00 90 1011.5
20260506144512 13 213 22.5 38.6 0.00 0.00 0.00 90 1011.5
20260506143010 13 167 19.3 43.5 0.00 0.00 0.00 90 1011.5
20260506141508 13 190 19.3 33.8 0.00 0.00 0.00 89 1012.0
20260506140008 13 208 14.5 35.4 0.00 0.00 0.00 89 1012.0
20260506134506 13 239 22.5 35.4 0.00 0.00 0.00 90 1012.3
20260506133006 13 178 17.7 40.2 0.00 0.00 0.00 90 1012.2
20260506131506 13 182 22.5 37.0 0.00 0.00 0.00 91 1012.0
20260506130010 13 194 14.5 35.4 0.00 0.00 0.00 91 1011.9
20260506124503 13 211 19.3 38.6 0.00 0.00 0.00 90 1012.0
20260506123003 13 204 19.3 35.4 0.00 0.00 0.00 90 1012.0
20260506121502 13 235 14.5 35.4 0.00 0.00 0.00 91 1012.2
20260506120002 13 174 19.3 37.0 0.00 0.00 0.00 91 1012.2
20260506114503 13 217 19.3 38.6 0.00 0.00 0.00 91 1012.2
20260506113109 13 243 19.3 40.2 0.00 0.00 0.00 92 1012.0
20260506111600 12 200 19.3 37.0 0.00 0.00 0.00 92 1012.0
20260506104558 12 214 22.5 40.2 0.00 0.00 0.00 93 1011.9
20260506103057 12 173 20.9 37.0 0.00 0.00 0.00 93 1011.9
20260506101555 12 211 16.1 43.5 0.00 0.00 0.00 93 1011.8
20260506100055 12 161 19.3 38.6 0.00 0.00 0.00 93 1011.8
20260506094554 12 198 20.9 38.6 0.00 0.00 0.00 93 1011.8
20260506093053 12 242 19.3 38.6 0.00 0.00 0.00 93 1011.8
20260506091549 12 191 24.1 40.2 0.00 0.00 0.00 93 1011.8
20260506090047 12 175 16.1 33.8 0.00 0.00 0.00 92 1012.0
20260506084545 12 171 19.3 32.2 0.00 0.00 0.00 92 1012.1
20260506083046 12 242 19.3 40.2 0.00 0.00 0.00 92 1012.2
20260506081549 12 200 22.5 40.2 0.00 0.00 0.00 92 1012.1
20260506073036 12 191 19.3 35.4 0.00 0.00 0.00 91 1012.5
20260506071544 12 210 19.3 33.8 0.00 0.00 0.00 90 1012.6
20260506061535 13 239 20.9 35.4 0.00 0.00 0.00 90 1012.6
20260506044522 13 243 22.5 45.1 0.00 0.00 0.00 88 1012.7
20260506043017 13 192 22.5 41.8 0.00 0.00 0.00 88 1012.8
20260506041514 13 210 19.3 51.5 0.00 0.00 0.00 88 1012.8
20260506040014 13 235 19.3 40.2 0.00 0.00 0.00 87 1012.8
20260506034511 13 212 24.1 40.2 0.00 0.00 0.00 86 1012.8
20260506033008 13 189 24.1 45.1 0.00 0.00 0.00 86 1012.8
20260506031513 13 171 22.5 37.0 0.00 0.00 0.00 86 1012.7
20260506030007 13 210 20.9 37.0 0.00 0.00 0.00 86 1012.9
20260506024504 13 174 22.5 40.2 0.00 0.00 0.00 86 1013.0
20260506023002 13 195 19.3 40.2 0.00 0.00 0.00 86 1012.9
20260506021502 13 194 19.3 38.6 0.00 0.00 0.00 87 1013.1
20260506020100 13 237 17.7 40.2 0.00 0.00 0.00 86 1012.9
20260506014602 14 179 24.1 43.5 0.00 0.00 0.00 85 1012.9
20260506013101 14 198 24.1 40.2 0.00 0.00 0.00 84 1012.7
20260506011559 14 192 27.4 46.7 0.00 0.00 0.00 84 1012.6
20260506010059 15 189 22.5 38.6 0.00 0.00 0.00 83 1012.6
20260506004625 15 206 22.5 41.8 0.00 0.00 0.00 82 1012.5
20260506003056 15 184 25.7 38.6 0.00 0.00 0.00 82 1012.4
20260506001553 15 232 27.4 40.2 0.00 0.00 0.00 81 1012.1
20260506000053 15 200 27.4 41.8 0.00 0.00 0.00 82 1011.9
20260505234612 15 185 25.7 49.9 0.00 0.00 0.00 82 1011.5
20260505233051 15 186 27.4 51.5 0.00 0.00 0.00 82 1011.3
20260505231551 15 225 27.4 53.1 0.00 0.00 0.00 82 1011.2
20260505230051 15 202 24.1 45.1 0.00 0.00 0.00 82 1010.9
20260505224549 15 191 25.7 49.9 0.00 0.00 0.00 81 1010.8
20260505223059 15 185 30.6 48.3 0.00 0.00 0.00 82 1010.7
20260505221558 15 179 20.9 51.5 0.00 0.00 0.00 81 1010.8
20260505220057 15 206 25.7 51.5 0.00 0.00 0.00 80 1010.6
20260505214603 15 203 27.4 49.9 0.00 0.00 0.00 80 1010.6
20260505213047 16 201 24.1 41.8 0.00 0.00 0.00 80 1010.4
20260505211544 16 218 24.1 43.5 0.00 0.00 0.00 80 1010.2
20260505210044 15 200 29.0 46.7 0.00 0.00 0.00 80 1010.2
20260505204544 15 186 24.1 40.2 0.00 0.00 0.00 81 1010.2
20260505203044 15 198 25.7 45.1 0.00 0.00 0.00 81 1010.2
20260505201540 15 187 24.1 45.1 0.00 0.00 0.00 81 1010.4
20260505200045 15 206 19.3 41.8 0.00 0.00 0.00 81 1010.5
20260505194539 16 184 22.5 37.0 0.00 0.00 0.00 81 1010.6
20260505193036 16 184 19.3 33.8 0.00 0.00 0.00 81 1011.0
20260505191535 16 186 16.1 37.0 0.00 0.00 0.00 80 1011.1
20260505190037 16 226 24.1 37.0 0.00 0.00 0.00 80 1011.3
20260505184532 16 181 19.3 32.2 0.00 0.00 0.00 81 1011.7
20260505183042 16 235 12.9 30.6 0.00 0.00 0.00 80 1011.9
20260505181529 16 237 11.3 20.9 0.00 0.00 0.00 80 1012.1
20260505180029 17 231 8.0 17.7 0.00 0.00 0.00 78 1012.3
20260505174526 16 212 8.0 16.1 0.00 0.00 0.00 80 1012.5
20260505173024 16 180 9.7 22.5 0.00 0.00 0.00 81 1012.5
20260505171524 16 189 9.7 22.5 0.00 0.00 0.00 81 1012.6
20260505170024 15 230 6.4 25.7 0.00 0.00 0.00 84 1012.7
20260505164523 15 196 12.9 24.1 0.00 0.00 0.00 81 1012.9
20260505163021 15 192 9.7 16.1 0.00 0.00 0.00 82 1012.9